Terminal Aerodrome Forecast
Issued by NWS Albany, NY

Home | Current Version | Previous Version | Text Only | Print | Product List | Glossary On
Versions: 1 2 3 4 5 6 7 8 9 10 11 12 13 14 15 16 17 18
000
FTUS41 KALY 190500
TAFALB
TAF
KALB 190532Z 1906/2006 36005KT P6SM BKN040 BKN050
     FM190800 36003KT P6SM SCT040
     FM191300 05005KT P6SM SKC
     FM191900 15006KT P6SM SKC
     FM200000 15003KT P6SM SCT050=

USA.gov is the U.S. government's official web portal to all federal, state and local government web resources and services.